| time (UTC) | temp F | wind direction | speed knots | gust knots | rain 1hr in | rain 24hr in | rain mn in | humidity % | barometer mb |
| 20260903171553 | 81 | 176 | 13.0 | 22.6 | 0.00 | 0.05 | 0.05 | 73 | 1006.6 |
| 20260903170100 | 81 | 194 | 13.0 | 20.0 | 0.00 | 0.05 | 0.05 | 76 | 1006.3 |
| 20260903164632 | 79 | 179 | 11.3 | 18.2 | 0.00 | 0.05 | 0.05 | 78 | 1006.7 |
| 20260903163012 | 79 | 154 | 15.6 | 22.6 | 0.00 | 0.05 | 0.05 | 76 | 1007.0 |
| 20260903161510 | 81 | 193 | 11.3 | 26.9 | 0.00 | 0.05 | 0.05 | 74 | 1007.7 |
| 20260903160054 | 79 | 183 | 16.5 | 24.3 | 0.00 | 0.05 | 0.05 | 75 | 1007.8 |
| 20260903154556 | 79 | 193 | 8.7 | 21.7 | 0.00 | 0.05 | 0.05 | 77 | 1007.9 |
| 20260903153034 | 78 | 181 | 8.7 | 20.9 | 0.00 | 0.05 | 0.05 | 80 | 1007.8 |
| 20260903151544 | 77 | 167 | 9.6 | 18.2 | 0.00 | 0.05 | 0.05 | 83 | 1007.8 |
| 20260903150015 | 77 | 134 | 8.7 | 20.0 | 0.00 | 0.05 | 0.05 | 84 | 1008.1 |
| 20260903144520 | 76 | 195 | 7.8 | 17.4 | 0.00 | 0.05 | 0.05 | 86 | 1008.1 |
| 20260903143100 | 75 | 134 | 7.8 | 16.5 | 0.00 | 0.05 | 0.05 | 85 | 1008.0 |
| 20260903141556 | 75 | 113 | 7.0 | 14.8 | 0.01 | 0.05 | 0.05 | 87 | 1007.8 |
| 20260903140051 | 73 | 129 | 7.8 | 19.1 | 0.04 | 0.05 | 0.05 | 87 | 1008.0 |
| 20260903134542 | 72 | 167 | 7.8 | 15.6 | 0.04 | 0.05 | 0.05 | 87 | 1007.9 |
| 20260903133019 | 71 | 191 | 9.6 | 14.8 | 0.04 | 0.05 | 0.05 | 87 | 1007.6 |
| 20260903131517 | 72 | 130 | 5.2 | 11.3 | 0.03 | 0.04 | 0.04 | 87 | 1008.7 |
| 20260903130100 | 73 | 186 | 3.5 | 8.7 | 0.00 | 0.01 | 0.01 | 87 | 1008.9 |
| 20260903124608 | 72 | 165 | 3.5 | 8.7 | 0.00 | 0.01 | 0.01 | 87 | 1008.5 |
| 20260903123042 | 0 | 0.0 | 0.0 | 0.00 | 0.01 | 0.01 | 1008.0 | ||
| 20260903121537 | 0 | 0.0 | 0.0 | 0.00 | 0.01 | 0.01 | 1008.2 | ||
| 20260903120036 | 0 | 0.0 | 0.0 | 0.00 | 0.01 | 0.01 | 1008.3 | ||
| 20260903114540 | 0 | 0.0 | 0.0 | 0.00 | 0.01 | 0.01 | 1008.1 | ||
| 20260903113024 | 0 | 0.0 | 0.0 | 0.00 | 0.01 | 0.01 | 1008.1 | ||
| 20260903111520 | 0 | 0.0 | 0.0 | 0.00 | 0.01 | 0.01 | 1007.8 | ||
| 20260903110015 | 0 | 0.0 | 0.0 | 0.00 | 0.01 | 0.01 | 1008.6 | ||
| 20260903104511 | 0 | 0.0 | 0.0 | 0.00 | 0.01 | 0.01 | 1008.4 | ||
| 20260903103049 | 0 | 0.0 | 0.0 | 0.00 | 0.01 | 0.01 | 1008.7 | ||
| 20260903101545 | 0 | 0.0 | 0.0 | 0.01 | 0.01 | 0.01 | 1009.4 | ||
| 20260903100030 | 0 | 0.0 | 0.0 | 0.01 | 0.01 | 0.01 | 1009.8 | ||
| 20260903094524 | 73 | 105 | 6.1 | 17.4 | 0.01 | 0.01 | 0.01 | 78 | 1008.8 |
| 20260903093003 | 72 | 175 | 9.6 | 15.6 | 0.01 | 0.01 | 0.01 | 84 | 1007.8 |
| 20260903091600 | 72 | 210 | 8.7 | 16.5 | 0.00 | 0.00 | 0.00 | 87 | 1008.8 |
| 20260903090040 | 73 | 249 | 3.5 | 13.9 | 0.00 | 0.00 | 0.00 | 86 | 1009.4 |
| 20260903084538 | 75 | 197 | 10.4 | 15.6 | 0.00 | 0.00 | 0.00 | 87 | 1008.9 |
| 20260903083020 | 74 | 238 | 2.6 | 7.0 | 0.00 | 0.00 | 0.00 | 86 | 1009.0 |
| 20260903081519 | 75 | 172 | 5.2 | 6.1 | 0.00 | 0.00 | 0.00 | 87 | 1007.7 |
| 20260903074604 | 73 | 134 | 3.5 | 7.0 | 0.00 | 0.00 | 0.00 | 70 | 1007.7 |
| 20260903073052 | 73 | 183 | 0.9 | 4.3 | 0.00 | 0.00 | 0.00 | 71 | 1007.6 |
| 20260903071548 | 73 | 143 | 2.6 | 6.1 | 0.00 | 0.00 | 0.00 | 73 | 1007.6 |
| 20260903070046 | 73 | 131 | 3.5 | 7.0 | 0.00 | 0.00 | 0.00 | 72 | 1007.9 |
| 20260903064544 | 73 | 163 | 2.6 | 4.3 | 0.00 | 0.00 | 0.00 | 73 | 1007.9 |
| 20260903063044 | 73 | 160 | 3.5 | 5.2 | 0.00 | 0.00 | 0.00 | 69 | 1008.0 |
| 20260903061543 | 73 | 170 | 1.7 | 3.5 | 0.00 | 0.97 | 0.00 | 66 | 1007.9 |
| 20260903060042 | 72 | 126 | 0.9 | 3.5 | 0.00 | 0.97 | 0.00 | 70 | 1008.0 |
| 20260903054541 | 73 | 129 | 1.7 | 3.5 | 0.00 | 0.97 | 0.00 | 69 | 1008.0 |
| 20260903053023 | 73 | 114 | 0.0 | 1.7 | 0.00 | 0.97 | 0.00 | 66 | 1008.0 |
| 20260903051521 | 73 | 116 | 1.7 | 3.5 | 0.00 | 1.32 | 0.00 | 68 | 1008.0 |
| 20260903050003 | 73 | 106 | 0.9 | 2.6 | 0.00 | 1.32 | 0.00 | 71 | 1008.1 |
| 20260903044502 | 73 | 113 | 1.7 | 3.5 | 0.00 | 1.32 | 0.00 | 70 | 1008.1 |
| 20260903043101 | 74 | 118 | 2.6 | 3.5 | 0.00 | 1.32 | 0.00 | 71 | 1008.1 |
| 20260903041544 | 73 | 113 | 1.7 | 3.5 | 0.00 | 1.33 | 0.00 | 72 | 1008.2 |
| 20260903040043 | 73 | 113 | 0.9 | 3.5 | 0.00 | 1.33 | 0.00 | 74 | 1008.2 |
| 20260903034523 | 74 | 127 | 1.7 | 3.5 | 0.00 | 1.33 | 0.00 | 78 | 1008.3 |
| 20260903033031 | 74 | 113 | 2.6 | 3.5 | 0.00 | 1.33 | 0.00 | 80 | 1008.4 |
| 20260903031501 | 75 | 120 | 2.6 | 4.3 | 0.00 | 1.33 | 0.00 | 83 | 1008.3 |
| 20260903030100 | 75 | 116 | 1.7 | 3.5 | 0.00 | 1.33 | 0.00 | 83 | 1008.4 |
| 20260903024545 | 75 | 136 | 1.7 | 3.5 | 0.00 | 1.33 | 0.00 | 84 | 1008.3 |
| 20260903023040 | 76 | 148 | 2.6 | 3.5 | 0.00 | 1.33 | 0.00 | 85 | 1008.3 |
| 20260903021533 | 76 | 128 | 1.7 | 3.5 | 0.00 | 1.33 | 0.00 | 85 | 1008.2 |
| 20260903020019 | 77 | 107 | 1.7 | 3.5 | 0.00 | 1.33 | 0.00 | 86 | 1008.1 |
| 20260903014502 | 77 | 136 | 1.7 | 3.5 | 0.00 | 1.33 | 0.00 | 86 | 1007.9 |
| 20260903013100 | 77 | 132 | 2.6 | 4.3 | 0.00 | 1.33 | 0.00 | 86 | 1007.7 |
| 20260903011539 | 78 | 108 | 1.7 | 4.3 | 0.00 | 1.33 | 0.00 | 86 | 1007.7 |
| 20260903010037 | 79 | 130 | 1.7 | 4.3 | 0.00 | 1.33 | 0.00 | 85 | 1007.6 |
| 20260903004521 | 81 | 133 | 1.7 | 3.5 | 0.00 | 1.33 | 0.00 | 83 | 1007.7 |
| 20260903003012 | 83 | 134 | 0.9 | 4.3 | 0.00 | 1.33 | 0.00 | 80 | 1007.7 |
| 20260903001556 | 84 | 135 | 0.0 | 2.6 | 0.00 | 1.33 | 0.00 | 76 | 1007.8 |
| 20260903000054 | 86 | 180 | 2.6 | 5.2 | 0.00 | 1.33 | 0.00 | 73 | 1007.8 |
| 20260902234537 | 86 | 167 | 2.6 | 5.2 | 0.00 | 1.33 | 0.00 | 71 | 1007.8 |
| 20260902233036 | 87 | 169 | 3.5 | 7.8 | 0.00 | 1.33 | 0.00 | 70 | 1007.9 |
| 20260902231525 | 87 | 215 | 6.1 | 9.6 | 0.00 | 1.33 | 0.00 | 68 | 1007.8 |
| 20260902230025 | 88 | 168 | 4.3 | 7.8 | 0.00 | 1.33 | 0.00 | 69 | 1007.9 |
| 20260902224524 | 88 | 165 | 3.5 | 10.4 | 0.00 | 1.33 | 0.00 | 68 | 1008.0 |
| 20260902223022 | 88 | 120 | 5.2 | 8.7 | 0.00 | 1.33 | 0.00 | 65 | 1007.9 |
| 20260902221521 | 88 | 162 | 4.3 | 9.6 | 0.00 | 1.33 | 0.00 | 64 | 1008.0 |
| 20260902220020 | 88 | 198 | 6.1 | 10.4 | 0.00 | 1.33 | 0.00 | 63 | 1008.2 |
| 20260902214526 | 88 | 153 | 6.1 | 11.3 | 0.00 | 1.33 | 0.00 | 64 | 1008.2 |
| 20260902213017 | 89 | 159 | 5.2 | 8.7 | 0.00 | 1.33 | 0.00 | 66 | 1008.3 |
| 20260902211605 | 89 | 169 | 4.3 | 7.0 | 0.00 | 1.33 | 0.00 | 66 | 1008.4 |
| 20260902204537 | 88 | 206 | 5.2 | 9.6 | 0.00 | 1.33 | 0.00 | 63 | 1008.5 |
| 20260902203035 | 88 | 195 | 4.3 | 7.8 | 0.00 | 1.33 | 0.00 | 66 | 1008.6 |
| 20260902201528 | 87 | 197 | 4.3 | 7.8 | 0.00 | 1.33 | 0.00 | 65 | 1008.7 |
| 20260902200026 | 88 | 204 | 3.5 | 7.8 | 0.00 | 1.33 | 0.00 | 64 | 1008.9 |
| 20260902194518 | 87 | 257 | 2.6 | 6.1 | 0.00 | 1.33 | 0.00 | 64 | 1008.9 |
| 20260902193015 | 87 | 226 | 1.7 | 6.1 | 0.00 | 1.33 | 0.00 | 65 | 1009.1 |
| 20260902191514 | 86 | 214 | 4.3 | 7.8 | 0.00 | 1.33 | 0.00 | 63 | 1009.3 |
| 20260902190010 | 86 | 261 | 3.5 | 7.8 | 0.00 | 1.33 | 0.00 | 65 | 1009.4 |
| 20260902184507 | 86 | 194 | 1.7 | 7.0 | 0.00 | 1.33 | 0.00 | 64 | 1009.4 |
| 20260902183005 | 86 | 177 | 1.7 | 5.2 | 0.00 | 1.33 | 0.00 | 65 | 1009.6 |
| 20260902181544 | 85 | 278 | 2.6 | 5.2 | 0.00 | 1.33 | 0.00 | 68 | 1009.8 |
| 20260902180045 | 84 | 254 | 2.6 | 5.2 | 0.00 | 1.33 | 0.00 | 69 | 1009.9 |
| 20260902174521 | 84 | 256 | 0.9 | 4.3 | 0.00 | 1.33 | 0.00 | 74 | 1010.1 |
| 20260902173017 | 82 | 251 | 1.7 | 5.2 | 0.00 | 1.33 | 0.00 | 77 | 1010.3 |